| time (UTC) | temp C | wind direction | speed KPH | gust KPH | rain 1hr cm | rain 24hr cm | rain mn cm | humidity % | barometer mb |
| 20260505140610 | 15 | 154 | 0.0 | 1.6 | 0.61 | 0.46 | 0.46 | 91 | 1007.7 |
| 20260505140107 | 15 | 156 | 1.6 | 1.6 | 0.48 | 0.38 | 0.38 | 91 | 1007.7 |
| 20260505125024 | 17 | 156 | 0.0 | 4.8 | 0.00 | 0.00 | 0.00 | 74 | 1007.3 |
| 20260505124520 | 17 | 148 | 1.6 | 3.2 | 0.00 | 0.00 | 0.00 | 74 | 1007.3 |
| 20260505124017 | 17 | 155 | 1.6 | 3.2 | 0.00 | 0.00 | 0.00 | 73 | 1007.1 |
| 20260505123514 | 17 | 181 | 1.6 | 3.2 | 0.00 | 0.00 | 0.00 | 73 | 1007.2 |
| 20260505123009 | 17 | 144 | 6.4 | 6.4 | 0.00 | 0.00 | 0.00 | 73 | 1007.0 |
| 20260505122507 | 17 | 156 | 3.2 | 3.2 | 0.00 | 0.00 | 0.00 | 72 | 1006.9 |
| 20260505122004 | 17 | 151 | 1.6 | 4.8 | 0.00 | 0.00 | 0.00 | 72 | 1006.8 |
| 20260505121500 | 17 | 146 | 3.2 | 9.7 | 0.00 | 0.00 | 0.00 | 72 | 1006.8 |
| 20260505120956 | 17 | 136 | 6.4 | 6.4 | 0.00 | 0.00 | 0.00 | 72 | 1006.8 |
| 20260505120453 | 17 | 140 | 1.6 | 11.3 | 0.00 | 0.00 | 0.00 | 72 | 1006.7 |
| 20260505115952 | 17 | 164 | 1.6 | 4.8 | 0.00 | 0.00 | 0.00 | 72 | 1006.7 |
| 20260505115448 | 17 | 159 | 3.2 | 6.4 | 0.00 | 0.00 | 0.00 | 72 | 1006.3 |
| 20260505114947 | 17 | 168 | 3.2 | 6.4 | 0.00 | 0.00 | 0.00 | 72 | 1006.5 |
| 20260505114442 | 17 | 153 | 1.6 | 3.2 | 0.00 | 0.00 | 0.00 | 71 | 1006.6 |
| 20260505113939 | 17 | 154 | 1.6 | 3.2 | 0.00 | 0.00 | 0.00 | 71 | 1006.5 |
| 20260505113435 | 17 | 158 | 0.0 | 1.6 | 0.00 | 0.00 | 0.00 | 71 | 1006.7 |
| 20260505112931 | 17 | 152 | 1.6 | 1.6 | 0.00 | 0.00 | 0.00 | 71 | 1006.5 |
| 20260505112429 | 17 | 157 | 1.6 | 4.8 | 0.00 | 0.00 | 0.00 | 70 | 1006.2 |
| 20260505111925 | 17 | 151 | 1.6 | 3.2 | 0.00 | 0.00 | 0.00 | 70 | 1006.1 |
| 20260505111420 | 17 | 138 | 6.4 | 6.4 | 0.00 | 0.00 | 0.00 | 70 | 1006.0 |
| 20260505110917 | 17 | 147 | 3.2 | 4.8 | 0.00 | 0.00 | 0.00 | 70 | 1005.9 |
| 20260505110414 | 17 | 146 | 1.6 | 3.2 | 0.00 | 0.00 | 0.00 | 70 | 1005.7 |
| 20260505101844 | 18 | 151 | 1.6 | 3.2 | 0.00 | 0.00 | 0.00 | 67 | 1005.7 |
| 20260505101339 | 18 | 147 | 3.2 | 6.4 | 0.00 | 0.00 | 0.00 | 67 | 1005.5 |
| 20260505100835 | 18 | 146 | 1.6 | 4.8 | 0.00 | 0.00 | 0.00 | 66 | 1005.5 |
| 20260505100332 | 18 | 151 | 1.6 | 3.2 | 0.00 | 0.00 | 0.00 | 67 | 1005.6 |
| 20260505095828 | 18 | 132 | 1.6 | 3.2 | 0.00 | 0.00 | 0.00 | 67 | 1005.4 |
| 20260505095326 | 18 | 154 | 1.6 | 11.3 | 0.00 | 0.00 | 0.00 | 66 | 1005.3 |
| 20260505094821 | 17 | 154 | 1.6 | 11.3 | 0.00 | 0.00 | 0.00 | 66 | 1005.2 |
| 20260505094318 | 17 | 182 | 4.8 | 11.3 | 0.00 | 0.00 | 0.00 | 66 | 1005.2 |
| 20260505093814 | 17 | 166 | 3.2 | 4.8 | 0.00 | 0.00 | 0.00 | 66 | 1005.2 |
| 20260505093313 | 17 | 178 | 0.0 | 4.8 | 0.00 | 0.00 | 0.00 | 66 | 1005.2 |
| 20260505092809 | 17 | 166 | 0.0 | 3.2 | 0.00 | 0.00 | 0.00 | 66 | 1005.1 |
| 20260505092308 | 17 | 172 | 4.8 | 9.7 | 0.00 | 0.00 | 0.00 | 65 | 1005.1 |
| 20260505091804 | 18 | 194 | 1.6 | 4.8 | 0.00 | 0.00 | 0.00 | 65 | 1005.0 |
| 20260505091302 | 18 | 150 | 0.0 | 9.7 | 0.00 | 0.00 | 0.00 | 65 | 1004.9 |
| 20260505090759 | 18 | 160 | 0.0 | 11.3 | 0.00 | 0.00 | 0.00 | 64 | 1004.8 |
| 20260505090257 | 18 | 165 | 1.6 | 9.7 | 0.00 | 0.00 | 0.00 | 64 | 1004.8 |
| 20260505085754 | 18 | 172 | 6.4 | 11.3 | 0.00 | 0.00 | 0.00 | 64 | 1005.0 |
| 20260505085253 | 18 | 161 | 3.2 | 9.7 | 0.00 | 0.00 | 0.00 | 64 | 1005.2 |
| 20260505084750 | 18 | 161 | 1.6 | 9.7 | 0.00 | 0.00 | 0.00 | 64 | 1005.1 |
| 20260505084249 | 18 | 159 | 3.2 | 11.3 | 0.00 | 0.00 | 0.00 | 64 | 1005.1 |
| 20260505083745 | 18 | 179 | 1.6 | 6.4 | 0.00 | 0.00 | 0.00 | 64 | 1005.3 |
| 20260505083242 | 18 | 190 | 1.6 | 6.4 | 0.00 | 0.00 | 0.00 | 63 | 1005.2 |
| 20260505082738 | 18 | 149 | 1.6 | 9.7 | 0.00 | 0.00 | 0.00 | 63 | 1005.3 |
| 20260505082235 | 18 | 191 | 4.8 | 6.4 | 0.00 | 0.00 | 0.00 | 63 | 1005.3 |
| 20260505081731 | 18 | 153 | 4.8 | 9.7 | 0.00 | 0.00 | 0.00 | 63 | 1005.6 |
| 20260505081229 | 18 | 187 | 1.6 | 12.9 | 0.00 | 0.00 | 0.00 | 62 | 1005.5 |
| 20260505080726 | 18 | 172 | 1.6 | 4.8 | 0.00 | 0.00 | 0.00 | 62 | 1005.6 |
| 20260505080221 | 18 | 163 | 3.2 | 4.8 | 0.00 | 0.00 | 0.00 | 62 | 1005.7 |
| 20260505075717 | 18 | 153 | 1.6 | 4.8 | 0.00 | 0.00 | 0.00 | 62 | 1005.6 |
| 20260505075214 | 18 | 173 | 1.6 | 4.8 | 0.00 | 0.00 | 0.00 | 61 | 1005.6 |
| 20260505074712 | 18 | 155 | 1.6 | 3.2 | 0.00 | 0.00 | 0.00 | 61 | 1005.7 |
| 20260505074209 | 18 | 146 | 1.6 | 4.8 | 0.00 | 0.00 | 0.00 | 60 | 1005.5 |
| 20260505073706 | 18 | 145 | 1.6 | 6.4 | 0.00 | 0.00 | 0.00 | 60 | 1005.7 |
| 20260505073204 | 18 | 153 | 0.0 | 3.2 | 0.00 | 0.00 | 0.00 | 59 | 1005.6 |
| 20260505072659 | 19 | 147 | 3.2 | 3.2 | 0.00 | 0.00 | 0.00 | 59 | 1006.0 |
| 20260505072156 | 19 | 186 | 1.6 | 4.8 | 0.00 | 0.00 | 0.00 | 58 | 1006.0 |
| 20260505071652 | 19 | 153 | 1.6 | 4.8 | 0.00 | 0.00 | 0.00 | 57 | 1006.1 |
| 20260505071150 | 19 | 148 | 1.6 | 3.2 | 0.00 | 0.00 | 0.00 | 57 | 1006.0 |
| 20260505070646 | 19 | 212 | 8.0 | 11.3 | 0.00 | 0.00 | 0.00 | 57 | 1006.3 |
| 20260505070143 | 20 | 156 | 1.6 | 6.4 | 0.00 | 0.00 | 0.00 | 56 | 1006.4 |
| 20260505065639 | 20 | 132 | 1.6 | 3.2 | 0.00 | 0.00 | 0.00 | 56 | 1006.5 |
| 20260505065136 | 20 | 124 | 1.6 | 11.3 | 0.00 | 0.00 | 0.00 | 56 | 1006.6 |
| 20260505064632 | 20 | 185 | 3.2 | 4.8 | 0.00 | 0.00 | 0.00 | 55 | 1006.8 |
| 20260505064131 | 20 | 170 | 1.6 | 9.7 | 0.00 | 0.00 | 0.00 | 55 | 1006.7 |
| 20260505063628 | 20 | 180 | 3.2 | 6.4 | 0.00 | 0.00 | 0.00 | 55 | 1006.7 |
| 20260505063124 | 20 | 161 | 1.6 | 3.2 | 0.00 | 0.00 | 0.00 | 55 | 1006.9 |
| 20260505062620 | 20 | 193 | 3.2 | 6.4 | 0.00 | 0.00 | 0.00 | 55 | 1007.0 |
| 20260505062118 | 20 | 62 | 4.8 | 14.5 | 0.00 | 0.00 | 0.00 | 54 | 1007.0 |
| 20260505061615 | 20 | 154 | 1.6 | 4.8 | 0.00 | 0.00 | 0.00 | 54 | 1007.0 |
| 20260505061113 | 20 | 221 | 3.2 | 9.7 | 0.00 | 0.00 | 0.00 | 54 | 1007.0 |
| 20260505060610 | 20 | 161 | 0.0 | 6.4 | 0.00 | 0.00 | 0.00 | 54 | 1007.1 |
| 20260505060107 | 20 | 164 | 1.6 | 9.7 | 0.00 | 0.00 | 0.00 | 54 | 1007.0 |
| 20260505055602 | 20 | 152 | 1.6 | 6.4 | 0.00 | 0.00 | 0.00 | 54 | 1007.3 |
| 20260505055059 | 20 | 178 | 3.2 | 4.8 | 0.00 | 0.00 | 0.00 | 54 | 1007.1 |
| 20260505054556 | 20 | 172 | 1.6 | 6.4 | 0.00 | 0.00 | 0.00 | 54 | 1006.8 |
| 20260505054054 | 20 | 181 | 4.8 | 6.4 | 0.00 | 0.00 | 0.00 | 54 | 1007.0 |
| 20260505053551 | 20 | 183 | 1.6 | 6.4 | 0.00 | 0.00 | 0.00 | 55 | 1007.0 |
| 20260505053048 | 20 | 184 | 0.0 | 6.4 | 0.00 | 0.00 | 0.00 | 55 | 1006.9 |
| 20260505052544 | 20 | 149 | 3.2 | 6.4 | 0.00 | 0.00 | 0.00 | 54 | 1007.0 |
| 20260505052042 | 20 | 161 | 0.0 | 1.6 | 0.00 | 0.00 | 0.00 | 54 | 1007.1 |
| 20260505051539 | 20 | 137 | 3.2 | 6.4 | 0.00 | 0.00 | 0.00 | 54 | 1007.0 |
| 20260505051037 | 20 | 148 | 0.0 | 11.3 | 0.00 | 0.00 | 0.00 | 54 | 1007.1 |
| 20260505050535 | 20 | 148 | 1.6 | 3.2 | 0.00 | 0.00 | 0.00 | 54 | 1007.2 |
| 20260505041503 | 20 | 177 | 1.6 | 4.8 | 0.00 | 0.00 | 0.00 | 53 | 1007.2 |
| 20260505041000 | 20 | 207 | 8.0 | 9.7 | 0.00 | 0.00 | 0.00 | 53 | 1007.5 |
| 20260505040457 | 20 | 174 | 1.6 | 9.7 | 0.00 | 0.00 | 0.00 | 53 | 1007.3 |
| 20260505035954 | 20 | 161 | 1.6 | 4.8 | 0.00 | 0.00 | 0.00 | 53 | 1007.4 |
| 20260505035450 | 20 | 188 | 1.6 | 3.2 | 0.00 | 0.00 | 0.00 | 53 | 1007.2 |
| 20260505034947 | 20 | 155 | 1.6 | 6.4 | 0.00 | 0.00 | 0.00 | 52 | 1007.2 |
| 20260505034444 | 21 | 191 | 4.8 | 6.4 | 0.00 | 0.00 | 0.00 | 52 | 1007.1 |
| 20260505033941 | 21 | 161 | 0.0 | 1.6 | 0.00 | 0.00 | 0.00 | 52 | 1007.2 |
| 20260505033437 | 21 | 195 | 3.2 | 6.4 | 0.00 | 0.00 | 0.00 | 52 | 1007.1 |
| 20260505032936 | 21 | 177 | 3.2 | 6.4 | 0.00 | 0.00 | 0.00 | 52 | 1007.2 |
| 20260505032433 | 21 | 261 | 3.2 | 4.8 | 0.00 | 0.00 | 0.00 | 52 | 1007.1 |
| 20260505031929 | 21 | 173 | 3.2 | 4.8 | 0.00 | 0.00 | 0.00 | 51 | 1007.0 |
| 20260505031426 | 21 | 152 | 1.6 | 4.8 | 0.00 | 0.00 | 0.00 | 51 | 1007.2 |
| 20260505030923 | 21 | 170 | 0.0 | 6.4 | 0.00 | 0.00 | 0.00 | 51 | 1007.1 |
| 20260505030419 | 21 | 158 | 1.6 | 4.8 | 0.00 | 0.00 | 0.00 | 51 | 1006.9 |
| 20260505025914 | 21 | 159 | 4.8 | 9.7 | 0.00 | 0.00 | 0.00 | 50 | 1007.1 |
| 20260505025412 | 21 | 155 | 3.2 | 4.8 | 0.00 | 0.00 | 0.00 | 50 | 1007.1 |
| 20260505024911 | 21 | 159 | 4.8 | 9.7 | 0.00 | 0.00 | 0.00 | 50 | 1007.0 |
| 20260505024408 | 21 | 190 | 1.6 | 3.2 | 0.00 | 0.00 | 0.00 | 50 | 1007.0 |
| 20260505023905 | 21 | 166 | 1.6 | 3.2 | 0.00 | 0.00 | 0.00 | 50 | 1006.8 |
| 20260505023402 | 21 | 154 | 0.0 | 1.6 | 0.00 | 0.00 | 0.00 | 49 | 1006.8 |
| 20260505022859 | 21 | 156 | 1.6 | 4.8 | 0.00 | 0.00 | 0.00 | 49 | 1006.9 |
| 20260505022356 | 21 | 178 | 0.0 | 3.2 | 0.00 | 0.00 | 0.00 | 48 | 1006.9 |
| 20260505021853 | 22 | 167 | 0.0 | 3.2 | 0.00 | 0.00 | 0.00 | 48 | 1006.6 |
| 20260505021349 | 22 | 143 | 0.0 | 4.8 | 0.00 | 0.00 | 0.00 | 48 | 1006.6 |
| 20260505020845 | 22 | 130 | 1.6 | 3.2 | 0.00 | 0.00 | 0.00 | 47 | 1006.6 |
| 20260505020341 | 22 | 181 | 3.2 | 6.4 | 0.00 | 0.00 | 0.00 | 47 | 1006.7 |
| 20260505015838 | 22 | 196 | 3.2 | 6.4 | 0.00 | 0.00 | 0.00 | 47 | 1006.5 |
| 20260505015335 | 22 | 182 | 3.2 | 6.4 | 0.00 | 0.00 | 0.00 | 47 | 1006.5 |
| 20260505014833 | 22 | 133 | 6.4 | 9.7 | 0.00 | 0.00 | 0.00 | 46 | 1006.4 |
| 20260505014329 | 22 | 163 | 0.0 | 4.8 | 0.00 | 0.00 | 0.00 | 47 | 1006.3 |
| 20260505013826 | 22 | 158 | 0.0 | 3.2 | 0.00 | 0.00 | 0.00 | 46 | 1006.4 |
| 20260505013323 | 22 | 138 | 3.2 | 3.2 | 0.00 | 0.00 | 0.00 | 46 | 1006.3 |
| 20260505012822 | 22 | 181 | 3.2 | 11.3 | 0.00 | 0.00 | 0.00 | 45 | 1006.4 |
| 20260505012319 | 22 | 191 | 3.2 | 4.8 | 0.00 | 0.00 | 0.00 | 45 | 1006.4 |
| 20260505011815 | 23 | 150 | 1.6 | 12.9 | 0.00 | 0.00 | 0.00 | 45 | 1006.4 |
| 20260505011312 | 23 | 184 | 3.2 | 11.3 | 0.00 | 0.00 | 0.00 | 45 | 1006.4 |
| 20260505010808 | 23 | 184 | 1.6 | 6.4 | 0.00 | 0.00 | 0.00 | 45 | 1006.3 |
| 20260505010304 | 23 | 149 | 3.2 | 4.8 | 0.00 | 0.00 | 0.00 | 44 | 1006.3 |
| 20260505005800 | 23 | 187 | 3.2 | 6.4 | 0.00 | 0.00 | 0.00 | 44 | 1006.2 |
| 20260505005257 | 23 | 200 | 4.8 | 11.3 | 0.00 | 0.00 | 0.00 | 44 | 1006.3 |
| 20260505004755 | 23 | 183 | 4.8 | 9.7 | 0.00 | 0.00 | 0.00 | 44 | 1006.2 |
| 20260505004250 | 23 | 170 | 3.2 | 3.2 | 0.00 | 0.00 | 0.00 | 44 | 1006.1 |
| 20260505003748 | 23 | 131 | 3.2 | 12.9 | 0.00 | 0.00 | 0.00 | 43 | 1006.0 |
| 20260505003246 | 23 | 178 | 6.4 | 12.9 | 0.00 | 0.00 | 0.00 | 42 | 1006.0 |
| 20260505002742 | 24 | 202 | 3.2 | 12.9 | 0.00 | 0.00 | 0.00 | 41 | 1006.3 |
| 20260505002239 | 24 | 129 | 3.2 | 11.3 | 0.00 | 0.00 | 0.00 | 41 | 1006.2 |
| 20260505001737 | 24 | 196 | 4.8 | 6.4 | 0.00 | 0.00 | 0.00 | 40 | 1006.1 |
| 20260505001234 | 25 | 189 | 8.0 | 12.9 | 0.00 | 0.00 | 0.00 | 40 | 1006.0 |
| 20260505000731 | 25 | 215 | 6.4 | 17.7 | 0.00 | 0.00 | 0.00 | 40 | 1006.1 |
| 20260505000229 | 25 | 158 | 6.4 | 16.1 | 0.00 | 0.00 | 0.00 | 39 | 1006.1 |
| 20260504235725 | 25 | 238 | 11.3 | 14.5 | 0.00 | 0.00 | 0.00 | 38 | 1006.1 |
| 20260504235221 | 25 | 205 | 3.2 | 4.8 | 0.00 | 0.00 | 0.00 | 39 | 1006.2 |
| 20260504234719 | 25 | 198 | 8.0 | 11.3 | 0.00 | 0.00 | 0.00 | 38 | 1006.3 |
| 20260504234216 | 25 | 266 | 3.2 | 11.3 | 0.00 | 0.00 | 0.00 | 38 | 1006.3 |
| 20260504233712 | 25 | 242 | 9.7 | 12.9 | 0.00 | 0.00 | 0.00 | 37 | 1006.2 |
| 20260504233208 | 25 | 237 | 6.4 | 22.5 | 0.00 | 0.00 | 0.00 | 37 | 1006.3 |
| 20260504232705 | 26 | 214 | 6.4 | 22.5 | 0.00 | 0.00 | 0.00 | 37 | 1006.3 |
| 20260504232202 | 26 | 181 | 4.8 | 12.9 | 0.00 | 0.00 | 0.00 | 37 | 1006.2 |
| 20260504231659 | 26 | 243 | 9.7 | 12.9 | 0.00 | 0.00 | 0.00 | 36 | 1006.3 |
| 20260504231155 | 26 | 270 | 8.0 | 12.9 | 0.00 | 0.00 | 0.00 | 36 | 1006.5 |
| 20260504230651 | 26 | 182 | 0.0 | 17.7 | 0.00 | 0.00 | 0.00 | 36 | 1006.3 |
| 20260504230150 | 26 | 205 | 9.7 | 20.9 | 0.00 | 0.00 | 0.00 | 36 | 1006.4 |
| 20260504225648 | 26 | 121 | 6.4 | 24.1 | 0.00 | 0.00 | 0.00 | 35 | 1006.3 |
| 20260504225144 | 26 | 140 | 3.2 | 16.1 | 0.00 | 0.00 | 0.00 | 36 | 1006.2 |
| 20260504224641 | 26 | 183 | 9.7 | 17.7 | 0.00 | 0.00 | 0.00 | 34 | 1006.3 |
| 20260504224138 | 26 | 187 | 1.6 | 16.1 | 0.00 | 0.00 | 0.00 | 37 | 1006.5 |
| 20260504223635 | 26 | 224 | 9.7 | 20.9 | 0.00 | 0.00 | 0.00 | 35 | 1006.5 |
| 20260504223131 | 27 | 90 | 4.8 | 14.5 | 0.00 | 0.00 | 0.00 | 37 | 1006.3 |
| 20260504222628 | 26 | 218 | 4.8 | 12.9 | 0.00 | 0.00 | 0.00 | 37 | 1006.3 |
| 20260504222125 | 27 | 240 | 4.8 | 16.1 | 0.00 | 0.00 | 0.00 | 37 | 1006.5 |
| 20260504221622 | 27 | 211 | 6.4 | 11.3 | 0.00 | 0.00 | 0.00 | 36 | 1006.3 |
| 20260504221119 | 27 | 228 | 3.2 | 12.9 | 0.00 | 0.00 | 0.00 | 36 | 1006.4 |
| 20260504220615 | 27 | 149 | 4.8 | 16.1 | 0.00 | 0.00 | 0.00 | 36 | 1006.4 |
| 20260504220113 | 27 | 260 | 14.5 | 20.9 | 0.00 | 0.00 | 0.00 | 35 | 1006.2 |
| 20260504215609 | 27 | 154 | 12.9 | 22.5 | 0.00 | 0.00 | 0.00 | 34 | 1006.5 |
| 20260504215107 | 27 | 239 | 12.9 | 16.1 | 0.00 | 0.00 | 0.00 | 34 | 1006.6 |
| 20260504214602 | 27 | 250 | 6.4 | 9.7 | 0.00 | 0.00 | 0.00 | 35 | 1006.3 |
| 20260504214059 | 27 | 204 | 4.8 | 12.9 | 0.00 | 0.00 | 0.00 | 36 | 1006.5 |
| 20260504213555 | 27 | 139 | 6.4 | 16.1 | 0.00 | 0.00 | 0.00 | 35 | 1006.5 |
| 20260504213052 | 27 | 196 | 6.4 | 29.0 | 0.00 | 0.00 | 0.00 | 35 | 1006.5 |
| 20260504212548 | 27 | 236 | 9.7 | 14.5 | 0.00 | 0.00 | 0.00 | 36 | 1006.5 |
| 20260504212046 | 27 | 154 | 4.8 | 14.5 | 0.00 | 0.00 | 0.00 | 35 | 1006.5 |
| 20260504211543 | 27 | 214 | 4.8 | 11.3 | 0.00 | 0.00 | 0.00 | 36 | 1006.5 |
| 20260504211039 | 27 | 186 | 4.8 | 14.5 | 0.00 | 0.00 | 0.00 | 35 | 1006.6 |
| 20260504210536 | 27 | 224 | 8.0 | 14.5 | 0.00 | 0.00 | 0.00 | 37 | 1006.6 |
| 20260504210033 | 27 | 142 | 3.2 | 17.7 | 0.00 | 0.00 | 0.00 | 36 | 1006.7 |
| 20260504205531 | 27 | 143 | 4.8 | 17.7 | 0.00 | 0.00 | 0.00 | 36 | 1006.7 |
| 20260504205029 | 27 | 225 | 4.8 | 12.9 | 0.00 | 0.00 | 0.00 | 37 | 1006.7 |
| 20260504204527 | 27 | 153 | 9.7 | 24.1 | 0.00 | 0.00 | 0.00 | 35 | 1006.9 |
| 20260504204026 | 27 | 152 | 4.8 | 14.5 | 0.00 | 0.00 | 0.00 | 35 | 1006.9 |
| 20260504203523 | 27 | 217 | 4.8 | 25.7 | 0.00 | 0.00 | 0.00 | 37 | 1006.9 |
| 20260504203020 | 27 | 268 | 11.3 | 17.7 | 0.00 | 0.00 | 0.00 | 37 | 1007.1 |
| 20260504202516 | 27 | 119 | 8.0 | 12.9 | 0.00 | 0.00 | 0.00 | 37 | 1007.1 |
| 20260504202013 | 27 | 231 | 6.4 | 14.5 | 0.00 | 0.00 | 0.00 | 38 | 1007.1 |
| 20260504201510 | 27 | 175 | 6.4 | 20.9 | 0.00 | 0.00 | 0.00 | 36 | 1007.4 |
| 20260504201008 | 27 | 113 | 8.0 | 14.5 | 0.00 | 0.00 | 0.00 | 36 | 1007.4 |
| 20260504200504 | 27 | 231 | 6.4 | 24.1 | 0.00 | 0.00 | 0.00 | 36 | 1007.4 |
| 20260504200000 | 27 | 348 | 8.0 | 14.5 | 0.00 | 0.00 | 0.00 | 35 | 1007.5 |
| 20260504195456 | 27 | 229 | 16.1 | 24.1 | 0.00 | 0.00 | 0.00 | 35 | 1007.7 |
| 20260504194953 | 27 | 225 | 4.8 | 12.9 | 0.00 | 0.00 | 0.00 | 36 | 1007.8 |
| 20260504194449 | 27 | 220 | 6.4 | 17.7 | 0.00 | 0.00 | 0.00 | 37 | 1008.0 |
| 20260504193945 | 27 | 232 | 8.0 | 20.9 | 0.00 | 0.00 | 0.00 | 34 | 1007.9 |
| 20260504193443 | 27 | 201 | 4.8 | 16.1 | 0.00 | 0.00 | 0.00 | 36 | 1007.9 |
| 20260504192942 | 27 | 191 | 16.1 | 25.7 | 0.00 | 0.00 | 0.00 | 35 | 1008.0 |
| 20260504192438 | 27 | 218 | 4.8 | 12.9 | 0.00 | 0.00 | 0.00 | 37 | 1008.1 |
| 20260504191937 | 27 | 224 | 1.6 | 6.4 | 0.00 | 0.00 | 0.00 | 39 | 1008.2 |
| 20260504191435 | 27 | 240 | 4.8 | 17.7 | 0.00 | 0.00 | 0.00 | 36 | 1008.3 |
| 20260504190935 | 27 | 217 | 6.4 | 16.1 | 0.00 | 0.00 | 0.00 | 35 | 1008.3 |
| 20260504190432 | 27 | 204 | 4.8 | 16.1 | 0.00 | 0.00 | 0.00 | 37 | 1008.3 |
| 20260504185928 | 27 | 140 | 3.2 | 24.1 | 0.00 | 0.00 | 0.00 | 37 | 1008.3 |
| 20260504185426 | 27 | 199 | 8.0 | 16.1 | 0.00 | 0.00 | 0.00 | 37 | 1008.4 |
| 20260504184921 | 27 | 108 | 8.0 | 22.5 | 0.00 | 0.00 | 0.00 | 35 | 1008.7 |
| 20260504184417 | 27 | 312 | 8.0 | 12.9 | 0.00 | 0.00 | 0.00 | 38 | 1008.6 |
| 20260504183914 | 26 | 216 | 6.4 | 11.3 | 0.00 | 0.00 | 0.00 | 41 | 1008.5 |
| 20260504183411 | 26 | 165 | 6.4 | 14.5 | 0.00 | 0.00 | 0.00 | 38 | 1008.5 |
| 20260504182909 | 26 | 294 | 14.5 | 20.9 | 0.00 | 0.00 | 0.00 | 37 | 1008.8 |
| 20260504182405 | 26 | 255 | 8.0 | 14.5 | 0.00 | 0.00 | 0.00 | 40 | 1009.1 |
| 20260504181902 | 26 | 245 | 9.7 | 17.7 | 0.00 | 0.00 | 0.00 | 39 | 1008.8 |
| 20260504181400 | 25 | 232 | 9.7 | 29.0 | 0.00 | 0.00 | 0.00 | 39 | 1008.9 |
| 20260504180858 | 25 | 232 | 9.7 | 17.7 | 0.00 | 0.00 | 0.00 | 39 | 1008.8 |
| 20260504180356 | 26 | 198 | 17.7 | 22.5 | 0.00 | 0.00 | 0.00 | 39 | 1009.1 |
| 20260504175854 | 26 | 171 | 16.1 | 25.7 | 0.00 | 0.00 | 0.00 | 39 | 1009.3 |
| 20260504175351 | 26 | 160 | 3.2 | 20.9 | 0.00 | 0.00 | 0.00 | 39 | 1009.0 |
| 20260504174849 | 26 | 139 | 14.5 | 25.7 | 0.00 | 0.00 | 0.00 | 38 | 1009.3 |
| 20260504174346 | 26 | 324 | 9.7 | 20.9 | 0.00 | 0.00 | 0.00 | 39 | 1009.1 |
| 20260504173843 | 26 | 205 | 6.4 | 16.1 | 0.00 | 0.00 | 0.00 | 38 | 1009.2 |
| 20260504173340 | 26 | 279 | 6.4 | 16.1 | 0.00 | 0.00 | 0.00 | 42 | 1009.5 |
| 20260504172837 | 26 | 202 | 6.4 | 14.5 | 0.00 | 0.00 | 0.00 | 39 | 1009.5 |
| 20260504172333 | 26 | 133 | 9.7 | 17.7 | 0.00 | 0.00 | 0.00 | 39 | 1009.8 |
| 20260504171829 | 26 | 147 | 8.0 | 20.9 | 0.00 | 0.00 | 0.00 | 40 | 1009.5 |
| 20260504171327 | 26 | 208 | 4.8 | 16.1 | 0.00 | 0.00 | 0.00 | 42 | 1009.6 |
| 20260504170824 | 26 | 195 | 8.0 | 12.9 | 0.00 | 0.00 | 0.00 | 41 | 1009.8 |
| 20260504170321 | 26 | 250 | 12.9 | 17.7 | 0.00 | 0.00 | 0.00 | 41 | 1009.7 |
| 20260504160239 | 25 | 185 | 4.8 | 16.1 | 0.00 | 0.00 | 0.00 | 48 | 1010.6 |
| 20260504150704 | 22 | 174 | 3.2 | 11.3 | 0.00 | 0.00 | 0.00 | 53 | 1011.0 |
| 20260504150201 | 22 | 188 | 8.0 | 14.5 | 0.00 | 0.00 | 0.00 | 51 | 1010.9 |